Location: Authuille
(50.0431°N, 2.6683°E)
Time: 09:45:14
(UTC+00:00)

Daily predictions for brighter satellites

Satellite Brightness Start Highest point End
(mag) Time Altitude Azimuth Time Altitude Azimuth Time Altitude Azimuth
Gbstr 26 Del rocket 4.5 19:59:21 10° WNW 20:07:24 84° NNE 20:14:19 10° ESE
SJ-6B 4.3 20:05:14 10° SSW 20:08:57 38° W 20:12:46 10° NNW
BREEZE M DEB (TANK) 4.3 20:04:57 10° W 20:09:02 85° S 20:23:39 10° E
Terra 3.5 20:13:17 10° ESE 20:16:42 20° ENE 20:20:08 10° NNE
Meteor 1-11 Rocket 4.3 20:11:44 10° N 20:17:29 47° ENE 20:23:08 10° SE
MetOp-B 4.3 20:12:31 10° SSE 20:17:48 65° ENE 20:23:08 10° N
Cosmos 1515 Rocket 3.6 20:16:30 10° S 20:20:50 61° E 20:25:09 10° NNE
Cosmos 1340 Rocket 4.4 20:18:12 10° NNE 20:21:24 22° ENE 20:24:35 10° ESE
Cosmos 1633 Rocket 4.1 20:17:37 10° NNW 20:21:52 47° W 20:26:06 10° SSW
Cosmos 2228 Rocket 4.0 20:19:48 10° SSE 20:23:41 30° E 20:27:37 10° NNE
Tianhe-1 3.1 20:22:11 10° SSW 20:23:44 13° SSE 20:25:05 11° SE
Cosmos 2315 Rocket 4.2 20:18:10 10° SSW 20:24:33 81° W 20:30:58 10° N
Cosmos 1869 Rocket 4.4 20:21:08 10° N 20:25:08 35° ENE 20:29:01 11° SE
Resurs 01 Rocket 1.8 20:22:57 10° S 20:27:23 77° WSW 20:31:51 10° NNW
BREEZE M DEB (TANK) 2.0 20:24:00 10° W 20:29:08 63° SSW 20:31:13 12° ESE
SWARM C 4.5 20:26:02 10° N 20:29:22 74° E 20:32:40 10° S
SWARM A 4.2 20:26:09 10° N 20:29:28 77° E 20:32:47 10° S
Cosmos 2082 Rocket 2.2 20:24:15 10° NNW 20:29:54 87° WSW 20:35:32 10° SSE
Cosmos 1328 Rocket 4.1 20:27:30 10° SSW 20:31:52 62° WNW 20:36:15 10° N
USA 305 4.4 20:29:13 10° W 20:32:49 27° SW 20:36:24 10° SSE
SPOT 1/Viking Rocket 3.6 20:28:12 10° SSE 20:33:22 69° ENE 20:38:32 10° N
ERS-1 Rocket 3.8 20:29:27 10° SE 20:33:59 38° ENE 20:38:37 10° N
Cosmos 1470 Rocket 4.3 20:34:56 10° NNW 20:39:19 54° W 20:43:41 10° S
Cosmos 1943 Rocket 3.3 20:35:19 10° SSE 20:39:41 24° ESE 20:44:02 10° NE
Spot 2 Rocket 3.7 20:35:19 10° SSE 20:40:11 60° ENE 20:45:10 10° N
EP 1 4.3 20:38:09 10° SW 20:41:13 74° SE 20:43:51 10° NE
ERBS 2.6 20:38:44 10° NW 20:42:01 60° NNE 20:44:57 12° ESE
OBJECT-B 3.8 20:40:30 10° WSW 20:42:05 13° W 20:43:41 10° WNW
Meteor 1-10 Rocket 4.2 20:37:47 10° S 20:43:20 68° E 20:49:02 10° NNE
Cosmos 1536 3.3 20:41:39 10° N 20:45:34 46° ENE 20:48:44 15° SSE
CARTOSAT-1 3.8 20:42:26 13° SSE 20:46:12 55° ENE 20:50:26 10° N
Landsat 7 4.1 20:41:39 10° S 20:46:23 67° WSW 20:51:10 10° NNW
CZ-2C R/B 3.7 20:42:19 10° NNE 20:46:51 70° ESE 20:51:26 10° S
SPOT 5 3.6 20:42:26 13° SE 20:46:58 48° ENE 20:52:06 10° N
SPOT 3 Rocket 4.1 20:44:45 10° S 20:49:49 58° WSW 20:54:55 10° NNW
Cosmos 1271 Rocket 2.7 20:46:12 10° S 20:50:12 80° E 20:54:13 10° NNE
Cosmos 1680 Rocket 3.6 20:47:39 10° NNW 20:53:01 78° ENE 20:57:31 15° SSE
Cosmos 1933 Rocket 4.1 20:48:48 10° NNW 20:53:04 58° W 20:57:20 10° S
ISS -3.4 20:51:39 10° SW 20:54:50 41° SSE 20:58:03 10° E
Cosmos 2278 Rocket 2.7 20:50:38 10° SW 20:56:15 64° WNW 21:01:54 10° NNE
Cosmos 2084 Rocket 3.5 20:53:14 10° NW 20:57:30 85° NE 21:00:52 17° SE
SJ 16-02 1.9 20:54:25 10° SSW 20:58:48 63° WNW 21:03:13 10° NNE
Cosmos 1544 3.5 20:55:27 10° N 20:58:56 45° ENE 21:01:17 19° SE
Cosmos 2369 Rocket 3.6 20:58:46 15° SE 21:01:09 19° E 21:05:01 10° NE
Cosmos 1666 3.8 21:02:04 10° NNW 21:05:34 40° W 21:09:04 10° SSW
JB-3 4.3 21:05:04 10° NNE 21:08:55 61° ESE 21:12:01 15° S
Cosmos 1733 Rocket 4.0 21:05:55 10° N 21:09:54 34° ENE 21:12:25 19° SE
ARIANE 5 R/B 2.7 21:10:14 15° S 21:13:45 76° WSW 21:18:08 10° NNW
RESURS DK-1 4.0 21:11:08 10° NNW 21:14:39 25° NE 21:17:43 12° E
Cosmos 1812 4.5 21:11:18 10° SW 21:14:48 32° WNW 21:18:19 10° N
BREEZE-M DEB (TANK) 1.5 21:16:26 10° W 21:18:23 43° SSW 21:18:58 33° SSE
Iridium 4 Rocket 4.1 21:13:35 10° S 21:19:27 71° W 21:25:21 10° N
USA 245 3.7 21:18:31 16° SSW 21:19:51 28° W 21:22:03 10° NW
Cosmos 990 Rocket 4.0 21:19:37 10° SSW 21:24:52 86° ESE 21:30:10 10° NNE
Cosmos 1898 Rocket 3.5 21:22:34 10° SSW 21:27:52 75° ESE 21:33:13 10° NNE
ATLAS 2AS CENTAUR R/B 3.1 21:22:24 10° NW 21:29:34 56° WSW 21:34:29 19° SSE
USA 215 4.2 21:23:47 10° ENE 21:30:01 49° N 21:36:15 10° WNW
SL-24 R/B - RUBIN 2 4.5 21:25:44 10° NW 21:30:59 49° WSW 21:34:02 21° S
Meteor 1-27 Rocket 3.9 21:25:29 10° SSW 21:31:23 83° WNW 21:37:22 10° N
Cosmos 44 4.1 21:27:24 10° NW 21:32:35 48° WSW 21:35:56 20° S
Cosmos 1818 3.7 21:29:55 10° NW 21:35:23 68° SW 21:38:46 23° SSE
Cosmos 2154 Rocket 4.3 21:29:21 10° NNW 21:35:37 65° W 21:40:59 14° S
Cosmos 1743 2.7 21:33:10 10° N 21:37:04 88° W 21:39:06 27° S
Cosmos 962 Rocket 4.4 21:34:21 10° N 21:40:31 86° E 21:44:46 21° S
Nadezhda 1 Rocket 4.2 21:36:14 10° SSW 21:42:29 72° WNW 21:48:42 10° N
Meteor 1-19 Rocket 4.4 21:43:17 24° SSE 21:46:12 49° E 21:51:25 10° NNE
BREEZE-M R/B 1.7 21:45:02 10° W 21:47:27 69° S 21:47:59 49° SE
H-2A R/B 3.4 21:45:56 10° NNE 21:50:08 74° ESE 21:52:23 26° S
Cosmos 44 Rocket 4.5 21:47:15 10° NNW 21:52:13 40° NE 21:56:13 15° ESE
Terra 2.0 21:51:09 24° S 21:54:00 67° WSW 21:58:46 10° NNW
Gbstr 26 Del rocket 4.4 21:47:16 10° WNW 21:54:39 54° SW 21:58:21 26° SSE
Cosmos 1461 3.0 21:50:53 10° SSW 21:55:35 75° SE 22:00:12 10° NE
Okean 1-7 4.4 21:56:31 21° ESE 21:57:28 23° E 22:00:50 10° NE
Cosmos 1340 Rocket 3.8 21:54:11 10° NNW 21:58:02 40° W 22:00:21 20° SSW
Cosmos 1862 Rocket 3.5 21:57:49 32° SSE 21:59:42 65° E 22:04:01 10° NNE
Cosmos 2297 3.9 21:55:22 10° SW 22:01:03 73° WNW 22:06:45 10° NNE
Okean 1 3.2 22:00:55 32° S 22:02:40 83° E 22:06:40 10° NNE
ATLAS CENTAUR R/B 2.3 22:10:15 27° E 22:10:15 27° E 22:12:56 10° ENE
Cosmos 1607 4.3 22:06:38 23° S 22:10:21 48° ESE 22:16:33 10° NE
ERS-1 Rocket 4.2 22:09:26 16° SSW 22:12:49 34° W 22:17:25 10° NNW
Cosmos 2082 Rocket 4.4 22:09:55 10° WNW 22:13:09 16° W 22:16:23 10° SW
Cosmos 2366 rocket 4.0 22:09:16 10° N 22:15:30 88° E 22:18:59 28° S
Cosmos 1515 4.1 22:13:57 27° SSW 22:15:49 58° WNW 22:19:34 10° N
ERBS 3.9 22:15:13 10° W 22:17:42 22° SW 22:17:42 22° SW
Cosmos 2181 Rocket 3.9 22:16:13 25° S 22:20:03 87° E 22:26:13 10° N
Cosmos 1937 Rocket 4.1 22:17:22 10° SW 22:22:26 56° WNW 22:27:34 10° NNE
Cosmos 1943 Rocket 2.5 22:17:22 10° SW 22:22:57 66° WNW 22:28:33 10° NNE
ISS -3.6 22:28:12 10° W 22:31:35 72° N 22:34:57 10° ENE
Cosmos 1867 3.5 22:28:40 26° SSW 22:31:45 66° SE 22:37:12 10° NE
Cosmos 1656 Rocket 3.7 22:30:07 33° S 22:32:23 58° ESE 22:37:49 10° NE
Spot 4 3.9 22:30:35 36° SE 22:32:32 70° ENE 22:37:23 10° N
Cosmos 1238 Rocket 4.3 22:29:37 10° NNW 22:35:12 47° W 22:37:52 25° SSW
Cosmos 1975 3.3 22:36:08 10° NNW 22:40:02 52° W 22:41:09 38° SW
Cosmos 1048 Rocket 4.0 22:35:24 10° NNW 22:40:44 79° WSW 22:42:47 38° SSE
Cosmos 2369 Rocket 2.2 22:40:29 20° SSW 22:44:28 80° WNW 22:50:11 10° NNE
Cosmos 2098 4.0 22:41:48 10° N 22:44:48 85° WSW 22:44:52 83° SW
Cosmos 2218 Rocket 4.4 22:38:59 10° NNW 22:45:09 58° W 22:48:39 26° SSW
Cosmos 2344 4.3 22:37:37 10° NW 22:46:36 85° NE 22:56:38 18° SE
ALOS 2 2.9 22:47:43 39° SE 22:49:06 56° ENE 22:53:25 10° N
Okean 3 4.0 22:51:44 39° ESE 22:52:25 43° E 22:56:26 10° NNE
RESURS DK-1 2.8 22:48:52 10° NW 22:52:53 47° WSW 22:53:36 42° SW
SL-27 R/B 2.2 22:49:36 10° NNW 22:52:56 73° WSW 22:53:01 72° SW
Lacrosse 5 2.7 22:54:17 31° ESE 22:54:17 31° ESE 22:58:25 10° ENE
Cosmos 1356 Rocket 3.6 22:52:21 10° N 22:56:39 68° ENE 22:57:43 48° SE
NOSS 2-1 (E) 4.2 22:52:11 10° NW 22:56:56 75° NE 23:00:42 25° SE
Cosmos 1300 Rocket 4.2 22:57:29 10° N 23:01:43 44° ENE 23:02:56 35° ESE
Nadezhda 3 Rocket 4.0 22:59:44 35° S 23:02:27 71° E 23:08:37 10° NNE
Cosmos 1908 Rocket 4.3 23:03:29 10° NNW 23:07:44 43° W 23:09:03 34° SW
Meteor 1-12 Rocket 4.2 23:04:08 10° NNW 23:10:01 87° W 23:12:18 39° S
Cosmos 2298 Rocket 4.1 23:09:55 31° SW 23:12:29 77° WNW 23:17:48 10° NNE
USA 215 3.7 23:06:07 10° E 23:12:32 61° NNE 23:18:57 10° WNW
Thor Agena Rocket 4.3 23:09:17 10° NNE 23:14:14 39° E 23:15:40 33° SE
Sich 1 Rocket 3.7 23:10:56 10° N 23:15:29 68° ENE 23:16:39 47° SE
COSMOS 2455 3.5 23:11:18 10° NNW 23:17:12 51° NE 23:21:45 17° ESE
Cosmos 1805 3.4 23:14:00 10° N 23:17:53 61° ENE 23:18:27 53° ESE
Cosmos 494 Rocket 4.3 23:14:02 10° NNW 23:19:03 51° WSW 23:20:30 39° SSW
Cosmos 1726 4.5 23:17:04 10° NNE 23:19:20 15° ENE 23:20:43 13° E
Cosmos 1378 3.0 23:22:00 69° SW 23:22:22 81° W 23:26:07 10° N
Cosmos 2242 Rocket 4.2 23:21:30 33° SW 23:23:06 49° WNW 23:27:29 10° N
Cosmos 1066 Rocket 4.2 23:22:33 40° S 23:24:38 73° E 23:30:14 10° NNE
MTI 4.1 23:22:17 10° NNE 23:24:49 56° NE 23:24:49 56° NE
Okean 2 Rocket 3.3 23:22:42 10° N 23:27:05 62° ENE 23:28:09 46° SE
Meteor 1-15 Rocket 4.2 23:21:58 10° N 23:27:44 83° ENE 23:30:02 39° SSE
COBE Rocket 4.0 23:26:12 44° S 23:27:52 79° WSW 23:33:05 10° NNW
Cosmos 2151 Rocket 4.1 23:24:39 10° N 23:29:06 52° ENE 23:30:21 39° SE
Cosmos 2227 Rocket 3.6 23:27:17 10° NNW 23:32:24 33° NE 23:37:29 10° ESE
Cosmos 44 Rocket 3.8 23:28:53 10° NW 23:33:54 48° WSW 23:34:54 42° SSW
Cosmos 2297 Rocket 3.2 23:29:21 10° NNW 23:34:44 41° NE 23:39:09 15° ESE
Okean 1-7 4.0 23:33:20 30° WSW 23:34:48 40° WNW 23:38:52 10° N
SAR-Lupe-2 3.4 23:31:46 10° NNE 23:35:22 85° WNW 23:35:36 77° SW
Cosmos 1766 3.3 23:32:27 10° N 23:36:24 67° ENE 23:36:58 57° SE
NOSS 2-1 (C) 4.4 23:38:26 10° NW 23:43:14 56° SW 23:45:14 39° S
COSMOS 2487 2.5 23:43:04 10° NNW 23:46:11 61° W 23:46:11 61° W
Cosmos 1125 Rocket 4.0 23:44:33 27° SW 23:47:10 55° WNW 23:52:19 10° NNE
ATLAS CENTAUR R/B 2.5 23:46:20 20° W 23:48:23 37° NW 23:52:01 10° NNE
NOSS 2-1 (D) 4.5 23:45:22 10° NW 23:50:07 50° SW 23:51:55 39° S
Cosmos 1934 Rocket 4.0 23:44:57 10° NNW 23:51:03 71° W 23:53:27 38° SSW
BREEZE-M DEB (TANK) 4.0 23:50:19 10° WNW 23:51:45 21° WNW 23:51:45 21° WNW
Cosmos 1378 Rocket 4.2 23:53:20 37° ESE 23:54:11 42° E 23:58:15 10° NNE
Cosmos 1470 3.7 23:52:17 10° N 23:56:01 40° ENE 23:57:01 33° ESE
